Location: Winthrop
(48.4780°N, 120.1850°W)
Time: 16:47:07
(UTC-07:00)

Explorer 7 - Pass Details

Date: 07 February 2023
Orbit: 478 x 657 km, 50.3° (Epoch: 30 March)

Event Time Altitude Azimuth Distance (km) Brightness Sun altitude
Rises 11:17:58 0° 245° (WSW) 2,628 10.4 25.1°
Reaches altitude 10° 11:20:07 10° 244° (WSW) 1,770 9.6 25.2°
Maximum altitude 11:24:08 76° 159° (SSE) 573 7.6 25.3°
Drops below altitude 10° 11:28:26 10° 74° (ENE) 1,890 9.6 25.5°
Sets 11:30:47 0° 73° (ENE) 2,825 10.4 25.6°
